Regional Weather Roundup
Issued by NWS

Home | Current Version | Previous Version | Graphics & Text | Print | Product List | Glossary On
Versions: 1 2 3 4 5 6 7 8 9 10 11 12 13 14 15 16 17 18 19 20 21 22 23 24 25 26 27 28 29 30 31 32 33 34 35 36 37 38 39 40 41 42 43 44 45 46 47 48 49 50
000
ASUS45 KSLC 011710
RWRUT

UTAH REGIONAL WEATHER ROUNDUP
NATIONAL WEATHER SERVICE SALT LAKE CITY UT
1100 AM MDT SUN MAY 01 2016

UTZ001>011-023>025-011800-

NORTHERN UTAH

CITY           SKY/WX    TMP DP  RH WIND       PRES   REMARKS
BRIGHAM CITY   PTSUNNY   50  19  29 E39G52    30.11S
HILL AFB       PTSUNNY   47  23  38 E25G41    30.08R
LOGAN          PTSUNNY   51  25  36 E15G32    30.17S
OGDEN          PTSUNNY   50  21  32 NE13G41   30.08S
PROVO AIRPORT  PTSUNNY   54  25  32 MISG      30.05F
SALT LAKE CITY PTSUNNY   57  23  26 NE20G29   30.06F
VERNAL         SUNNY     49  23  36 NE18G36   30.14S
WENDOVER       MOSUNNY   52  30  43 NE18G26   30.11S
HEBER CITY     MOSUNNY   50  23  34 N7        30.08S

$$

UTZ012>022-026-027-011800-

SOUTHERN/CENTRAL UTAH

CITY           SKY/WX    TMP DP  RH WIND       PRES   REMARKS
BLANDING       CLOUDY    42  39  87 NE10      30.10R
BRYCE CANYON   PTSUNNY   45  28  51 NE15      30.02R
CEDAR CITY     SUNNY     50  36  58 N8        29.99S
DELTA          SUNNY     54  23  30 CALM      30.01F
HANKSVILLE     MOSUNNY   54  27  35 NE7       30.07S
MILFORD        SUNNY     52  32  46 N14       30.00S
MOAB/CYNLANDS  PTSUNNY   55  26  32 NE16G24   30.01S
PRICE          SUNNY     49  24  37 NE23      30.08R
ST GEORGE      MOSUNNY   61  41  48 W5        29.96R
KANAB          SUNNY     57  34  41 E13G21    30.01R

$$

REGIONAL REPORTS     COLORADO/ARIZONA

CITY           SKY/WX    TMP DP  RH WIND       PRES   REMARKS
CRAIG, CO        N/A     46  22  38 E24G32    30.13S
GRAND JUNCTION SUNNY     54  25  32 E8        30.03F
RIFLE          SUNNY     53  21  28 NE18G26   30.06S
MONTROSE       CLOUDY    49  26  41 E15G33    30.07F
CORTEZ         CLOUDY    45  37  73 SE16G22   30.04R
PAGE, AZ       LGT RAIN  49  37  63 E9G24     30.01R
GRAND CANYON   CLOUDY    44  31  60 E13       30.00R
KINGMAN        CLOUDY    57  43  59 N6        29.94R
FLAGSTAFF      CLOUDY    35  34  96 S6        29.99R WCI  30

$$

REGIONAL REPORTS    NEVADA/IDAHO/WYOMING

CITY           SKY/WX    TMP DP  RH WIND       PRES   REMARKS
LAS VEGAS, NV  MOSUNNY   68  39  34 E6G17     29.88R
ELY            PTSUNNY   43  31  62 N16G22    30.06S
ELKO           SUNNY     53  30  41 NE17G25   30.06F
POCATELLO, ID  MOSUNNY   53  29  39 E6        30.20F
BURLEY         MOSUNNY   54  33  45 E15       30.15F
EVANSTON, WY   CLOUDY    37  20  50 E35G44    30.18S WCI  24
ROCK SPRINGS   CLOUDY    39  23  52 NE28G39   30.24F WCI  28
KEMMERER       CLOUDY    36  23  60 E30G41    30.24S WCI  22

$$



USA.gov is the U.S. government's official web portal to all federal, state and local government web resources and services.